[[{"header":{"parameterUnit":"m.s-1","parameterCategory":1,"la1":30.2991,"la2":30.254,"lo1":-89.0895,"lo2":-89.0444,"dy":0.0017,"dx":0.0017,"nx":28,"ny":28,"refTime":"2025-11-22T03:00:00:Z","depth":0,"parameterNumber":2,"parameterNumberName":"U-component_of_WINDS"},"data":[0,0,0,0,0,0,0,0,0,0,0,0,0,0,0,0,0,0,0,0,0,0,0,0,0,0,0,0,0,0,0,0,0,0,0,0,0,0,0,0,0,0,0,0,0,0,0,0,0,0,0,0,0,0,0,0,0,0,2.0578,2.0578,0,2.0607,2.0607,2.0607,2.0607,2.0606,2.0606,2.0605,2.0635,2.0636,2.0638,0,0,0,0,0,0,0,0,0,0,0,0,0,2.0524,2.0525,2.0577,2.0578,2.0578,2.0607,2.0607,2.0607,2.0607,2.0606,2.0606,2.0605,2.0635,2.0636,2.0638,0,0,0,0,0,0,0,0,0,0,0,0,0,2.0549,2.0525,2.0577,2.0581,2.0582,2.0607,2.0607,2.0607,2.0607,2.0606,2.0606,2.0605,2.0634,2.0636,2.0638,2.066,0,0,2.0643,2.0644,0,0,0,0,0,0,0,0,2.0548,2.0551,2.058,2.0581,2.0582,2.0602,2.0599,2.0625,2.0607,2.0597,2.0605,2.0605,2.0625,2.0627,2.0634,2.0662,2.0663,2.0643,2.0644,2.0645,2.0646,0,0,0,0,0,0,0,2.0546,2.055,2.0589,2.0581,2.0582,2.0582,2.0585,2.0604,2.0614,2.0598,2.0598,2.0602,2.0625,2.0632,2.0635,2.0664,2.0643,2.0645,2.0646,2.0647,2.0716,2.0716,0,0,0,0,0,0,2.0543,2.0549,2.0588,2.059,2.0563,2.0584,2.0587,2.0596,2.0614,2.0616,2.0602,2.0601,2.063,2.0633,2.0636,2.0666,2.0645,2.0647,2.0648,2.0715,2.0716,2.0717,0,0,0,0,0,0,2.0542,2.0547,2.0587,2.0569,2.0575,2.0585,2.0596,2.0597,2.0605,2.0617,2.0619,2.0608,2.0629,2.0633,2.0655,2.0667,2.0648,2.0649,2.0714,2.0715,2.0716,2.0725,0,0,0,0,0,0,2.0541,2.0547,2.0554,2.057,2.0575,2.0605,2.0596,2.0598,2.0608,2.0607,2.0622,2.0624,2.0629,2.0653,2.0657,2.0669,2.0651,2.0713,2.0714,2.0716,2.0724,2.0726,2.0728,0,0,0,0,0,2.0539,2.0555,2.0555,2.0559,2.0585,2.0606,2.0609,2.0614,2.0608,2.0617,2.0626,2.0624,2.0665,2.0655,2.066,2.0672,2.0712,2.0714,2.0716,2.0722,2.0726,2.0728,0,0,0,0,0,0,2.054,2.0557,2.0557,2.0578,2.0591,2.0605,2.0616,2.0617,2.0631,2.063,2.0636,2.0639,2.0662,2.0669,2.0658,2.0697,2.0688,2.0691,2.0692,2.0695,2.0697,2.0695,2.0652,0,0,0,0,0,2.0543,2.0557,2.0571,2.0589,2.0595,2.0605,2.0614,2.0617,2.063,2.0635,2.0645,2.0658,2.0675,2.0685,2.07,2.0725,2.073,2.0736,2.0739,2.0741,2.0743,2.076,2.0764,2.0722,2.0722,2.0722,0,0,2.0548,2.0559,2.0568,2.0589,2.0599,2.0616,2.0609,2.0625,2.0638,2.0638,2.066,2.0668,2.0683,2.0707,2.0718,2.0714,2.0756,2.0743,2.0744,2.0746,2.0762,2.0766,2.077,2.0724,2.0723,2.0723,0,0,2.0567,2.0576,2.0593,2.0604,2.062,2.0627,2.0631,2.0647,2.0652,2.0674,2.0676,2.0691,2.0718,2.073,2.0739,2.0767,2.0767,2.0772,2.0784,2.0801,2.0804,2.0807,2.0819,2.0823,2.0774,2.0774,2.0774,0,2.0571,2.0595,2.0601,2.0619,2.063,2.0631,2.065,2.066,2.068,2.0688,2.0683,2.0719,2.0729,2.0758,2.0765,2.0772,2.0779,2.077,2.0803,2.0806,2.0809,2.0821,2.0825,2.0775,2.0775,2.0775,2.0775,0,2.0602,2.0619,2.0631,2.0651,2.0663,2.0681,2.0691,2.0703,2.0706,2.0714,2.0739,2.0752,2.0771,2.0778,2.078,2.0808,2.0806,2.0802,2.0793,2.0814,2.0825,2.0829,2.0776,2.0776,2.0775,2.0775,0,0,2.0619,2.0646,2.065,2.0661,2.0681,2.0694,2.0714,2.0733,2.0744,2.0759,2.0777,2.0801,2.0799,2.081,2.0815,2.0829,2.0854,2.0824,2.0825,2.0831,2.0888,2.0892,2.0896,2.0854,2.0855,2.0855,2.0888,0,2.0641,2.0675,2.0683,2.0713,2.073,2.0734,2.0751,2.0766,2.0775,2.0792,2.0802,2.082,2.0815,2.0822,2.0836,2.0847,2.0865,2.0845,2.0872,2.0873,2.0869,2.0902,2.0905,2.0934,2.0892,2.0892,2.0893,0,2.067,2.0688,2.0719,2.074,2.0747,2.0763,2.0784,2.0799,2.0817,2.0823,2.0837,2.0841,2.0863,2.0854,2.0886,2.0872,2.0884,2.0891,2.0893,2.0896,2.0884,2.0907,2.0944,2.0949,2.0899,2.0899,2.0898,0,2.0682,2.0713,2.0737,2.0746,2.077,2.0782,2.0792,2.081,2.0822,2.0841,2.085,2.087,2.0882,2.0899,2.0909,2.09,2.0941,2.0931,2.0948,2.0948,2.0957,2.0956,2.0997,2.0962,2.0962,2.0962,2.0962,0,2.0706,2.0726,2.0744,2.0758,2.0782,2.0792,2.0815,2.0825,2.0842,2.086,2.0864,2.0882,2.0894,2.0913,2.0921,2.0949,2.0953,2.096,2.0962,2.096,2.096,2.0968,2.0967,2.0963,2.0963,2.0963,2.0963,0,2.0723,2.0735,2.0762,2.0784,2.079,2.0807,2.0826,2.0841,2.0852,2.0875,2.0881,2.0898,2.0921,2.0933,2.0962,2.0968,2.0999,2.0999,2.0993,2.0994,2.1011,2.101,2.106,2.1068,2.1027,2.1027,2.1027,0,2.0738,2.0753,2.0778,2.0791,2.0802,2.0822,2.0836,2.0848,2.0862,2.0886,2.09,2.0924,2.0943,2.0982,2.0997,2.102,2.1022,2.1038,2.1025,2.1024,2.1024,2.1024,2.1027,2.104,2.104,2.104,2.1041,0,2.0763,2.0769,2.0789,2.0812,2.0829,2.0847,2.0865,2.0876,2.0891,2.0907,2.0932,2.0948,2.0979,2.1004,2.1029,2.1041,2.1044,2.1045,2.105,2.1049,2.1045,2.105,2.1001,2.1043,2.1043,2.1043,2.1043,2.1043,2.078,2.0796,2.0816,2.0839,2.0855,2.0873,2.089,2.0903,2.0924,2.0951,2.0957,2.0984,2.1005,2.104,2.1053,2.1076,2.1072,2.1079,2.1082,2.1084,2.1086,2.1041,2.108,2.108,2.108,2.108,2.108,0,2.0807,2.0822,2.0843,2.0869,2.0888,2.089,2.0912,2.0928,2.0951,2.0971,2.0992,2.1022,2.1047,2.1066,2.1092,2.1107,2.1109,2.1114,2.1113,2.1116,2.1086,2.1079,2.1111,2.1111,2.1111,2.1111,2.1111,2.1111,2.0824,2.0851,2.086,2.0897,2.0911,2.0938,2.0951,2.0968,2.0985,2.1019,2.104,2.1052,2.1073,2.1101,2.1125,2.113,2.1141,2.1145,2.115,2.1121,2.1118,2.1115,2.1109,2.1147,2.1147,2.118,2.118,2.118]},{"header":{"parameterUnit":"m.s-1","parameterCategory":1,"la1":30.2991,"la2":30.254,"lo1":-89.0895,"lo2":-89.0444,"dy":0.0017,"dx":0.0017,"nx":28,"ny":28,"refTime":"2025-11-22T03:00:00:Z","depth":0,"parameterNumber":3,"parameterNumberName":"V-component_of_WINDS"},"data":[0,0,0,0,0,0,0,0,0,0,0,0,0,0,0,0,0,0,0,0,0,0,0,0,0,0,0,0,0,0,0,0,0,0,0,0,0,0,0,0,0,0,0,0,0,0,0,0,0,0,0,0,0,0,0,0,0,0,-0.1317,-0.1317,0,-0.1324,-0.1325,-0.1325,-0.1345,-0.1345,-0.1345,-0.1346,-0.1354,-0.1354,-0.1354,0,0,0,0,0,0,0,0,0,0,0,0,0,-0.132,-0.132,-0.1317,-0.1317,-0.1317,-0.1324,-0.1325,-0.1325,-0.1344,-0.1345,-0.1345,-0.1346,-0.1354,-0.1354,-0.1354,0,0,0,0,0,0,0,0,0,0,0,0,0,-0.1322,-0.132,-0.1317,-0.1328,-0.1329,-0.1324,-0.1325,-0.1325,-0.1344,-0.1345,-0.1346,-0.1346,-0.1354,-0.1354,-0.1354,-0.1339,0,0,-0.1353,-0.1353,0,0,0,0,0,0,0,0,-0.1322,-0.1322,-0.1326,-0.1327,-0.1328,-0.1334,-0.1329,-0.133,-0.1344,-0.1338,-0.1346,-0.1347,-0.1347,-0.1347,-0.1347,-0.134,-0.134,-0.1353,-0.1353,-0.1352,-0.1352,0,0,0,0,0,0,0,-0.1322,-0.1322,-0.132,-0.1326,-0.1327,-0.1333,-0.1334,-0.1329,-0.1339,-0.1339,-0.134,-0.1341,-0.1348,-0.1347,-0.1348,-0.134,-0.1353,-0.1352,-0.1352,-0.1352,-0.1324,-0.1323,0,0,0,0,0,0,-0.132,-0.1322,-0.1319,-0.132,-0.1327,-0.1332,-0.1333,-0.1332,-0.1339,-0.1341,-0.1341,-0.1342,-0.1348,-0.1348,-0.1348,-0.1333,-0.1352,-0.1352,-0.1352,-0.1324,-0.1323,-0.1323,0,0,0,0,0,0,-0.132,-0.132,-0.1319,-0.1321,-0.1322,-0.1331,-0.1329,-0.1331,-0.1331,-0.134,-0.1342,-0.1339,-0.1348,-0.1348,-0.1342,-0.1334,-0.1352,-0.1352,-0.1325,-0.1324,-0.1323,-0.1303,0,0,0,0,0,0,-0.132,-0.132,-0.1314,-0.1321,-0.1321,-0.1312,-0.1329,-0.1331,-0.1331,-0.1333,-0.1339,-0.1341,-0.1349,-0.1342,-0.1342,-0.1334,-0.1352,-0.1326,-0.1324,-0.1323,-0.1304,-0.1301,-0.1299,0,0,0,0,0,-0.132,-0.1307,-0.1313,-0.1313,-0.1314,-0.1312,-0.1312,-0.1321,-0.133,-0.1325,-0.1331,-0.134,-0.1335,-0.1341,-0.1341,-0.1333,-0.1326,-0.1325,-0.1323,-0.1305,-0.1302,-0.1299,0,0,0,0,0,0,-0.1298,-0.1308,-0.1315,-0.1304,-0.1307,-0.1315,-0.1308,-0.1317,-0.1317,-0.1319,-0.1331,-0.1332,-0.1325,-0.1328,-0.1335,-0.1321,-0.1332,-0.1331,-0.1318,-0.1315,-0.1312,-0.1312,-0.1351,0,0,0,0,0,-0.1292,-0.1289,-0.1298,-0.1288,-0.1289,-0.1298,-0.1297,-0.1305,-0.1308,-0.1309,-0.1315,-0.1318,-0.1317,-0.1316,-0.1316,-0.1305,-0.1307,-0.1299,-0.1296,-0.1294,-0.1293,-0.1289,-0.1286,-0.1318,-0.1318,-0.1318,0,0,-0.128,-0.1285,-0.1282,-0.1283,-0.1286,-0.1284,-0.1299,-0.1295,-0.1293,-0.1309,-0.1303,-0.1308,-0.1312,-0.1304,-0.13,-0.1306,-0.1285,-0.1292,-0.1291,-0.1291,-0.1287,-0.1284,-0.1282,-0.1317,-0.1318,-0.1318,0,0,-0.1256,-0.1259,-0.1251,-0.1254,-0.1259,-0.1266,-0.1264,-0.1271,-0.1274,-0.1269,-0.1281,-0.128,-0.1277,-0.1281,-0.1282,-0.1261,-0.1271,-0.1261,-0.1247,-0.1243,-0.124,-0.1238,-0.1232,-0.1229,-0.1259,-0.1259,-0.1259,0,-0.1239,-0.1235,-0.1246,-0.1241,-0.1242,-0.1257,-0.125,-0.1252,-0.1257,-0.1257,-0.1264,-0.1263,-0.1267,-0.126,-0.1255,-0.1255,-0.1255,-0.126,-0.124,-0.1238,-0.1236,-0.123,-0.1228,-0.1258,-0.1258,-0.1258,-0.1258,0,-0.1216,-0.1213,-0.1206,-0.1211,-0.1211,-0.1205,-0.1215,-0.1214,-0.1222,-0.1229,-0.1224,-0.1229,-0.1231,-0.123,-0.1237,-0.1225,-0.1229,-0.1237,-0.1249,-0.1231,-0.1226,-0.1224,-0.1256,-0.1257,-0.1257,-0.1258,0,0,-0.1177,-0.1189,-0.1186,-0.1189,-0.1196,-0.1194,-0.119,-0.1192,-0.1192,-0.1194,-0.1192,-0.1191,-0.1199,-0.1201,-0.1209,-0.1205,-0.119,-0.1214,-0.1215,-0.1211,-0.1179,-0.1173,-0.117,-0.1196,-0.1196,-0.1196,-0.1179,0,-0.1155,-0.1148,-0.1158,-0.1149,-0.1148,-0.1162,-0.1159,-0.1163,-0.1169,-0.1169,-0.1176,-0.1176,-0.1186,-0.1188,-0.1185,-0.1192,-0.1184,-0.1194,-0.1195,-0.1195,-0.1194,-0.1167,-0.116,-0.1144,-0.1177,-0.1177,-0.1176,0,-0.1128,-0.1131,-0.1121,-0.1131,-0.1131,-0.1127,-0.1131,-0.113,-0.1136,-0.1141,-0.1144,-0.1153,-0.1151,-0.1163,-0.116,-0.1166,-0.1168,-0.1172,-0.1171,-0.1172,-0.1185,-0.1168,-0.1139,-0.1137,-0.1173,-0.1173,-0.1173,0,-0.1103,-0.1103,-0.1098,-0.11,-0.1111,-0.1108,-0.1113,-0.1119,-0.112,-0.1124,-0.1125,-0.1128,-0.113,-0.1132,-0.1143,-0.115,-0.114,-0.1152,-0.1145,-0.1144,-0.1142,-0.1142,-0.1113,-0.1141,-0.1141,-0.1142,-0.1142,0,-0.1077,-0.1071,-0.1087,-0.1084,-0.1079,-0.1091,-0.1085,-0.1091,-0.1097,-0.1096,-0.1109,-0.1108,-0.1122,-0.1123,-0.1132,-0.1129,-0.113,-0.1134,-0.1137,-0.1133,-0.1133,-0.1135,-0.1136,-0.1141,-0.1141,-0.1141,-0.1141,0,-0.1047,-0.1058,-0.1054,-0.1064,-0.1067,-0.1062,-0.1072,-0.107,-0.1078,-0.1077,-0.1077,-0.1089,-0.1091,-0.1102,-0.1106,-0.1112,-0.1107,-0.1112,-0.1105,-0.1107,-0.11,-0.1101,-0.1072,-0.1069,-0.1098,-0.1098,-0.1097,0,-0.1031,-0.1027,-0.1038,-0.1038,-0.1042,-0.1042,-0.1044,-0.1056,-0.1058,-0.1065,-0.1063,-0.1066,-0.1069,-0.1072,-0.1081,-0.1085,-0.109,-0.108,-0.1091,-0.1088,-0.1092,-0.1092,-0.1092,-0.1078,-0.1077,-0.1077,-0.1077,0,-0.1001,-0.1007,-0.1008,-0.1012,-0.1014,-0.1018,-0.1022,-0.1022,-0.1036,-0.1037,-0.104,-0.1042,-0.1047,-0.1051,-0.1056,-0.1062,-0.1072,-0.1073,-0.1072,-0.1069,-0.1066,-0.1069,-0.11,-0.1074,-0.1074,-0.1074,-0.1075,-0.1075,-0.0978,-0.0976,-0.0983,-0.0985,-0.099,-0.0995,-0.0994,-0.1002,-0.1004,-0.1009,-0.1017,-0.1019,-0.1027,-0.1036,-0.104,-0.1043,-0.1048,-0.1046,-0.1046,-0.1045,-0.1044,-0.1065,-0.1043,-0.1044,-0.1044,-0.1044,-0.1044,0,-0.095,-0.0956,-0.0957,-0.0964,-0.0966,-0.0975,-0.0981,-0.0983,-0.0984,-0.099,-0.0994,-0.0997,-0.1001,-0.1011,-0.1017,-0.1017,-0.1022,-0.1018,-0.1018,-0.1019,-0.1038,-0.1039,-0.1014,-0.1014,-0.1014,-0.1014,-0.1014,-0.1014,-0.0935,-0.0932,-0.0939,-0.094,-0.0946,-0.0948,-0.0951,-0.0955,-0.0961,-0.0964,-0.0967,-0.0974,-0.0983,-0.0989,-0.0993,-0.0997,-0.0998,-0.0993,-0.0998,-0.1015,-0.1018,-0.1021,-0.1022,-0.0993,-0.0993,-0.0979,-0.0979,-0.0979]}]]